[[{"header":{"parameterUnit":"m.s-1","parameterCategory":1,"la1":30.2991,"la2":30.254,"lo1":-89.0895,"lo2":-89.0444,"dy":0.0017,"dx":0.0017,"nx":28,"ny":28,"refTime":"2025-08-08T03:00:00:Z","depth":0,"parameterNumber":2,"parameterNumberName":"U-component_of_WINDS"},"data":[0,0,0,0,0,0,0,0,0,0,0,0,0,0,0,0,0,0,0,0,0,0,0,0,0,0,0,0,0,0,0,0,0,0,0,0,0,0,0,0,0,0,0,0,0,0,0,0,0,0,0,0,0,0,0,0,0,0,-6.2084,-6.2085,0,-6.2115,-6.2115,-6.2116,-6.1977,-6.1973,-6.1969,-6.1966,-6.1997,-6.2001,-6.2006,0,0,0,0,0,0,0,0,0,0,0,0,0,-6.1907,-6.1911,-6.2084,-6.2085,-6.2085,-6.2115,-6.2115,-6.2116,-6.1978,-6.1973,-6.1968,-6.1964,-6.1995,-6.2001,-6.2006,0,0,0,0,0,0,0,0,0,0,0,0,0,-6.1966,-6.1912,-6.2084,-6.202,-6.2015,-6.2115,-6.2115,-6.2116,-6.1979,-6.1973,-6.1967,-6.1961,-6.1994,-6.2,-6.2007,-6.2171,0,0,-6.2028,-6.2031,0,0,0,0,0,0,0,0,-6.1963,-6.1972,-6.2029,-6.2025,-6.2019,-6.2036,-6.2064,-6.2134,-6.1981,-6.1993,-6.1965,-6.1958,-6.2015,-6.202,-6.2039,-6.2172,-6.2173,-6.2029,-6.2033,-6.2036,-6.2038,0,0,0,0,0,0,0,-6.1959,-6.197,-6.2096,-6.203,-6.2024,-6.199,-6.1992,-6.2077,-6.2037,-6.1991,-6.1981,-6.1987,-6.2011,-6.2032,-6.2038,-6.2174,-6.2029,-6.2035,-6.2039,-6.2042,-6.2444,-6.245,0,0,0,0,0,0,-6.1963,-6.1968,-6.2095,-6.2097,-6.1975,-6.1998,-6.2,-6.2037,-6.2036,-6.203,-6.1992,-6.198,-6.2024,-6.203,-6.2039,-6.223,-6.2036,-6.2042,-6.2046,-6.2437,-6.2445,-6.2452,0,0,0,0,0,0,-6.196,-6.1976,-6.2094,-6.203,-6.2042,-6.2008,-6.205,-6.2041,-6.2062,-6.2037,-6.2029,-6.2021,-6.2019,-6.2029,-6.2139,-6.2229,-6.2045,-6.2052,-6.2429,-6.244,-6.2449,-6.2614,0,0,0,0,0,0,-6.1955,-6.1976,-6.2037,-6.2032,-6.2046,-6.2194,-6.2056,-6.2046,-6.2074,-6.2059,-6.2062,-6.2056,-6.2015,-6.213,-6.2146,-6.2235,-6.2057,-6.2421,-6.2434,-6.2446,-6.26,-6.2628,-6.2652,0,0,0,0,0,-6.195,-6.2082,-6.2041,-6.2057,-6.2123,-6.2199,-6.2207,-6.2157,-6.2082,-6.2143,-6.2128,-6.2056,-6.2217,-6.2142,-6.2159,-6.2252,-6.2415,-6.243,-6.2445,-6.2588,-6.2623,-6.2651,0,0,0,0,0,0,-6.2097,-6.208,-6.2034,-6.2169,-6.2187,-6.2176,-6.2252,-6.2195,-6.2234,-6.2218,-6.2154,-6.2156,-6.2277,-6.2276,-6.2192,-6.2411,-6.2303,-6.2322,-6.2407,-6.2439,-6.2464,-6.2461,-6.2063,0,0,0,0,0,-6.2146,-6.221,-6.2191,-6.2312,-6.2324,-6.2287,-6.2318,-6.2279,-6.2294,-6.2301,-6.2293,-6.2311,-6.2365,-6.2402,-6.2451,-6.26,-6.2599,-6.2673,-6.2699,-6.272,-6.2737,-6.2816,-6.2848,-6.2501,-6.25,-6.25,0,0,-6.2246,-6.2245,-6.2289,-6.2342,-6.2351,-6.2419,-6.2294,-6.237,-6.242,-6.2312,-6.2415,-6.2411,-6.2426,-6.2557,-6.2614,-6.2559,-6.2833,-6.2739,-6.2756,-6.2761,-6.2834,-6.2867,-6.2896,-6.2511,-6.2509,-6.2507,0,0,-6.2463,-6.2469,-6.257,-6.2582,-6.2598,-6.2573,-6.2598,-6.2596,-6.2589,-6.2691,-6.2612,-6.2671,-6.2766,-6.2781,-6.2801,-6.3027,-6.2962,-6.3044,-6.3179,-6.3257,-6.3284,-6.3308,-6.3388,-6.3417,-6.3061,-6.3062,-6.3062,0,-6.2586,-6.2684,-6.2629,-6.2712,-6.2738,-6.2645,-6.2747,-6.2761,-6.2792,-6.2812,-6.2751,-6.2869,-6.2874,-6.3006,-6.3062,-6.3081,-6.3107,-6.3042,-6.3285,-6.3308,-6.333,-6.3405,-6.3435,-6.3072,-6.307,-6.3069,-6.3068,0,-6.2834,-6.2904,-6.2984,-6.3016,-6.3051,-6.3143,-6.3103,-6.3145,-6.3104,-6.3085,-6.3192,-6.3194,-6.3242,-6.3271,-6.323,-6.3399,-6.3364,-6.3296,-6.3185,-6.3373,-6.3443,-6.3472,-6.3085,-6.3082,-6.3079,-6.3077,0,0,-6.3141,-6.3145,-6.3175,-6.3188,-6.32,-6.3253,-6.3342,-6.3389,-6.3426,-6.3452,-6.3524,-6.3608,-6.3545,-6.3568,-6.3529,-6.3598,-6.3776,-6.352,-6.3519,-6.3566,-6.3961,-6.4011,-6.4045,-6.3735,-6.374,-6.3744,-6.3959,0,-6.3353,-6.3503,-6.3458,-6.361,-6.3673,-6.3588,-6.3665,-6.3681,-6.3667,-6.3719,-6.3704,-6.3764,-6.3677,-6.369,-6.3755,-6.3741,-6.3854,-6.3725,-6.3801,-6.3804,-6.3797,-6.4082,-6.4135,-6.4337,-6.3986,-6.3991,-6.3994,0,-6.3619,-6.3655,-6.3814,-6.3815,-6.3841,-6.3911,-6.3951,-6.4002,-6.4019,-6.4004,-6.4032,-6.3979,-6.4066,-6.3959,-6.4079,-6.3992,-6.4021,-6.4019,-6.4026,-6.4029,-6.3909,-6.4091,-6.4401,-6.4431,-6.4037,-6.4033,-6.403,0,-6.3826,-6.3915,-6.4021,-6.4036,-6.4041,-6.4092,-6.4097,-6.4108,-6.414,-6.4175,-6.4195,-6.4241,-6.4266,-6.4303,-6.4264,-6.419,-6.439,-6.4279,-6.438,-6.4381,-6.4424,-6.4421,-6.474,-6.4446,-6.4446,-6.4445,-6.4445,0,-6.4066,-6.4166,-6.4114,-6.4179,-6.4289,-6.4237,-6.4347,-6.4342,-6.4353,-6.4416,-6.4346,-6.4406,-6.4352,-6.4409,-6.438,-6.4483,-6.4495,-6.4485,-6.4476,-6.4491,-6.4492,-6.4507,-6.4491,-6.4453,-6.4452,-6.445,-6.4449,0,-6.4314,-6.4284,-6.4394,-6.4391,-6.4392,-6.4473,-6.447,-6.4531,-6.4513,-6.4594,-6.461,-6.4582,-6.4645,-6.4611,-6.4675,-6.4656,-6.479,-6.4762,-6.4784,-6.4776,-6.4878,-6.4868,-6.5216,-6.5259,-6.494,-6.4943,-6.4945,0,-6.4468,-6.4543,-6.4548,-6.4585,-6.4595,-6.4656,-6.4688,-6.4641,-6.4677,-6.4704,-6.4761,-6.4818,-6.486,-6.4965,-6.495,-6.5,-6.4972,-6.5091,-6.4979,-6.4991,-6.4972,-6.4967,-6.4974,-6.5112,-6.5116,-6.5119,-6.5122,0,-6.4744,-6.4726,-6.4775,-6.482,-6.4861,-6.4894,-6.4921,-6.4955,-6.4909,-6.4954,-6.5017,-6.505,-6.5117,-6.5174,-6.5217,-6.5222,-6.5165,-6.5158,-6.5183,-6.5198,-6.5207,-6.5202,-6.4843,-6.5149,-6.5146,-6.5144,-6.5143,-6.5142,-6.4948,-6.5011,-6.5025,-6.5082,-6.5098,-6.5126,-6.5182,-6.5172,-6.5224,-6.5274,-6.5244,-6.5319,-6.5335,-6.5387,-6.54,-6.5458,-6.541,-6.5448,-6.5457,-6.5467,-6.548,-6.52,-6.5466,-6.5465,-6.5464,-6.5464,-6.5463,0,-6.5219,-6.5224,-6.5278,-6.5318,-6.5364,-6.5308,-6.5335,-6.5377,-6.5444,-6.5464,-6.5508,-6.5581,-6.5637,-6.5629,-6.568,-6.5728,-6.5703,-6.5743,-6.5738,-6.574,-6.552,-6.5492,-6.5762,-6.5762,-6.5762,-6.5762,-6.5762,-6.5762,-6.5365,-6.5468,-6.5452,-6.5563,-6.5567,-6.5639,-6.566,-6.5685,-6.5701,-6.5787,-6.5833,-6.5827,-6.5836,-6.5888,-6.5937,-6.5933,-6.5954,-6.6004,-6.5991,-6.5785,-6.5755,-6.5727,-6.57,-6.601,-6.601,-6.6205,-6.6207,-6.6208]},{"header":{"parameterUnit":"m.s-1","parameterCategory":1,"la1":30.2991,"la2":30.254,"lo1":-89.0895,"lo2":-89.0444,"dy":0.0017,"dx":0.0017,"nx":28,"ny":28,"refTime":"2025-08-08T03:00:00:Z","depth":0,"parameterNumber":3,"parameterNumberName":"V-component_of_WINDS"},"data":[0,0,0,0,0,0,0,0,0,0,0,0,0,0,0,0,0,0,0,0,0,0,0,0,0,0,0,0,0,0,0,0,0,0,0,0,0,0,0,0,0,0,0,0,0,0,0,0,0,0,0,0,0,0,0,0,0,0,-0.0336,-0.0336,0,-0.0341,-0.0341,-0.0341,-0.032,-0.0319,-0.0319,-0.0318,-0.0324,-0.0324,-0.0325,0,0,0,0,0,0,0,0,0,0,0,0,0,-0.0308,-0.0309,-0.0336,-0.0336,-0.0336,-0.0341,-0.0341,-0.0341,-0.032,-0.0319,-0.0318,-0.0318,-0.0323,-0.0324,-0.0325,0,0,0,0,0,0,0,0,0,0,0,0,0,-0.0317,-0.0309,-0.0336,-0.0326,-0.0325,-0.0341,-0.0341,-0.0341,-0.032,-0.0319,-0.0318,-0.0317,-0.0323,-0.0324,-0.0325,-0.035,0,0,-0.0329,-0.0329,0,0,0,0,0,0,0,0,-0.0317,-0.0318,-0.0328,-0.0327,-0.0326,-0.0329,-0.0333,-0.0344,-0.032,-0.0322,-0.0318,-0.0317,-0.0326,-0.0327,-0.033,-0.0351,-0.0351,-0.0329,-0.0329,-0.033,-0.033,0,0,0,0,0,0,0,-0.0316,-0.0318,-0.0338,-0.0328,-0.0327,-0.0321,-0.0322,-0.0335,-0.0329,-0.0322,-0.032,-0.0321,-0.0325,-0.0329,-0.033,-0.0351,-0.0329,-0.033,-0.033,-0.0331,-0.039,-0.0391,0,0,0,0,0,0,-0.0317,-0.0318,-0.0338,-0.0338,-0.0319,-0.0322,-0.0323,-0.0329,-0.0329,-0.0328,-0.0322,-0.032,-0.0327,-0.0329,-0.033,-0.0358,-0.033,-0.0331,-0.0331,-0.0389,-0.039,-0.0391,0,0,0,0,0,0,-0.0316,-0.0319,-0.0338,-0.0327,-0.0329,-0.0324,-0.0331,-0.0329,-0.0333,-0.0329,-0.0328,-0.0326,-0.0327,-0.0328,-0.0345,-0.0358,-0.0331,-0.0332,-0.0388,-0.039,-0.0391,-0.0415,0,0,0,0,0,0,-0.0316,-0.0319,-0.0329,-0.0328,-0.033,-0.0353,-0.0332,-0.033,-0.0334,-0.0332,-0.0333,-0.0332,-0.0326,-0.0343,-0.0346,-0.0359,-0.0333,-0.0387,-0.0389,-0.039,-0.0413,-0.0417,-0.0421,0,0,0,0,0,-0.0315,-0.0336,-0.0329,-0.0332,-0.0342,-0.0354,-0.0355,-0.0347,-0.0336,-0.0345,-0.0342,-0.0332,-0.0356,-0.0345,-0.0348,-0.0362,-0.0386,-0.0388,-0.039,-0.0412,-0.0417,-0.0421,0,0,0,0,0,0,-0.034,-0.0336,-0.0328,-0.035,-0.0352,-0.035,-0.0362,-0.0353,-0.0359,-0.0357,-0.0347,-0.0347,-0.0365,-0.0365,-0.0353,-0.0385,-0.0369,-0.0372,-0.0384,-0.0389,-0.0393,-0.0392,-0.0334,0,0,0,0,0,-0.0348,-0.0358,-0.0354,-0.0373,-0.0375,-0.0368,-0.0373,-0.0366,-0.0368,-0.0369,-0.0368,-0.037,-0.0378,-0.0383,-0.039,-0.0413,-0.0412,-0.0423,-0.0427,-0.043,-0.0433,-0.0443,-0.0447,-0.0398,-0.0398,-0.0398,0,0,-0.0365,-0.0364,-0.0371,-0.0378,-0.0379,-0.0389,-0.0369,-0.0381,-0.0388,-0.0371,-0.0386,-0.0385,-0.0387,-0.0406,-0.0414,-0.0406,-0.0446,-0.0433,-0.0435,-0.0436,-0.0445,-0.045,-0.0454,-0.04,-0.0399,-0.0399,0,0,-0.0401,-0.0401,-0.0417,-0.0417,-0.0418,-0.0414,-0.0417,-0.0416,-0.0414,-0.0429,-0.0416,-0.0424,-0.0438,-0.0439,-0.0441,-0.0474,-0.0464,-0.0477,-0.0497,-0.0506,-0.051,-0.0514,-0.0524,-0.0528,-0.0479,-0.0479,-0.0479,0,-0.0422,-0.0436,-0.0426,-0.0438,-0.0441,-0.0425,-0.044,-0.0441,-0.0445,-0.0447,-0.0438,-0.0453,-0.0453,-0.0472,-0.0479,-0.0482,-0.0485,-0.0477,-0.051,-0.0514,-0.0517,-0.0527,-0.0531,-0.0481,-0.0481,-0.048,-0.048,0,-0.0461,-0.0471,-0.0483,-0.0486,-0.049,-0.0504,-0.0495,-0.05,-0.0493,-0.0489,-0.0503,-0.0502,-0.0508,-0.0511,-0.0505,-0.0528,-0.0523,-0.0512,-0.0496,-0.0523,-0.0532,-0.0536,-0.0483,-0.0482,-0.0482,-0.0481,0,0,-0.0515,-0.051,-0.0515,-0.0515,-0.0513,-0.052,-0.0532,-0.0537,-0.0541,-0.0543,-0.0552,-0.0563,-0.0553,-0.0555,-0.0548,-0.0557,-0.0581,-0.0545,-0.0545,-0.0551,-0.0605,-0.0613,-0.0618,-0.0574,-0.0575,-0.0576,-0.0605,0,-0.0549,-0.0569,-0.0559,-0.0581,-0.0588,-0.0572,-0.0582,-0.0582,-0.0578,-0.0583,-0.0579,-0.0586,-0.0572,-0.0573,-0.0581,-0.0577,-0.0592,-0.0574,-0.0582,-0.0583,-0.0582,-0.0623,-0.0632,-0.0659,-0.0608,-0.0609,-0.0609,0,-0.0593,-0.0595,-0.0617,-0.0612,-0.0615,-0.0624,-0.0626,-0.0632,-0.0631,-0.0627,-0.0629,-0.0619,-0.0629,-0.0612,-0.0626,-0.0614,-0.0616,-0.0614,-0.0615,-0.0616,-0.0598,-0.0624,-0.0668,-0.0672,-0.0615,-0.0615,-0.0614,0,-0.0629,-0.0637,-0.0651,-0.0651,-0.0646,-0.0653,-0.0651,-0.0649,-0.0651,-0.0653,-0.0654,-0.0658,-0.066,-0.0662,-0.0653,-0.0642,-0.0667,-0.065,-0.0663,-0.0663,-0.067,-0.067,-0.0714,-0.0671,-0.0671,-0.0671,-0.0671,0,-0.0668,-0.0682,-0.0667,-0.0675,-0.0689,-0.0677,-0.0691,-0.0687,-0.0685,-0.0692,-0.0678,-0.0684,-0.0672,-0.0677,-0.0669,-0.0681,-0.0682,-0.0679,-0.0676,-0.068,-0.068,-0.0681,-0.0679,-0.0672,-0.0672,-0.0672,-0.0672,0,-0.0711,-0.0702,-0.0715,-0.0708,-0.0706,-0.0717,-0.0711,-0.0718,-0.0712,-0.072,-0.0721,-0.0712,-0.0717,-0.0707,-0.0711,-0.0706,-0.0722,-0.0717,-0.0722,-0.0721,-0.0734,-0.0733,-0.0782,-0.0787,-0.0741,-0.0741,-0.0742,0,-0.0737,-0.0747,-0.074,-0.0743,-0.0741,-0.0747,-0.0749,-0.0737,-0.0739,-0.0737,-0.0744,-0.0747,-0.075,-0.0758,-0.0751,-0.0753,-0.0748,-0.0765,-0.0749,-0.0751,-0.0748,-0.0747,-0.0747,-0.0769,-0.0769,-0.077,-0.077,0,-0.0783,-0.0777,-0.0781,-0.0782,-0.0784,-0.0785,-0.0784,-0.0788,-0.0774,-0.0778,-0.0782,-0.0784,-0.0786,-0.079,-0.079,-0.0787,-0.0776,-0.0775,-0.0778,-0.0782,-0.0784,-0.0782,-0.0731,-0.0774,-0.0774,-0.0773,-0.0773,-0.0773,-0.0818,-0.0825,-0.0821,-0.0824,-0.0822,-0.0821,-0.0827,-0.0821,-0.0824,-0.0825,-0.0817,-0.0823,-0.0819,-0.0818,-0.0816,-0.082,-0.0812,-0.0817,-0.0818,-0.082,-0.0821,-0.0783,-0.082,-0.082,-0.082,-0.082,-0.082,0,-0.0863,-0.0859,-0.0862,-0.0861,-0.0863,-0.0851,-0.0849,-0.0852,-0.0857,-0.0854,-0.0856,-0.086,-0.0862,-0.0855,-0.0856,-0.086,-0.0855,-0.0861,-0.086,-0.0859,-0.0829,-0.0825,-0.0865,-0.0865,-0.0865,-0.0865,-0.0865,-0.0865,-0.0886,-0.0897,-0.0891,-0.09,-0.0895,-0.09,-0.09,-0.0899,-0.0896,-0.0901,-0.0902,-0.0897,-0.0892,-0.0892,-0.0893,-0.0891,-0.0891,-0.0899,-0.0895,-0.0866,-0.0862,-0.0858,-0.0855,-0.0899,-0.0899,-0.0925,-0.0926,-0.0926]}]]